SWR189 ZSPD-LSZH

Flight info

Callsign SWR189
Flight time N/A
Altitude 32100
Route PIK98D PIKAS G330 PIMOL A593 NIXEM/K0887S1040 A593 DALIM W157 BEKDO/K0876S1010 W157 VYK G212 SOTMU/K0883S1040 B339 ASILA A575 UPREK W28 LAGEB W66 IDSIP/K0867S1100 W66 NUKTI B215 FKG A368 SARIN/K0854F360 N161 UNABO/K0859F380 N161 GASBI/N0469F380 N161 LEYLA N644 ADEKI DCT BADIR DCT LAGAS DCT NOLGA UN61 TBN UM11 TEMEL/N0468F400 UM11 CRM UL746 ODERO DCT LUGEB DCT SOKRU DCT INVED DCT SUNIS DCT ERKIR DCT KPT L856 NEGRA
Aircraft A343/H-SDE2E3FGHIJ4J5M1P2RWXY/LB1D1

Departure

Time 2026-05-07 08:31
Airport Shanghai Pudong International Airport (ZSPD)

Arrival

Time N/A
Airport Zürich Airport (LSZH)
Time Latitude Longitude Altitude Speed Heading
2026-05-07 08:00 31.15282 121.80758 26 ft 0 kts 252°
2026-05-07 08:10 31.15283 121.80762 26 ft 3 kts 252°
2026-05-07 08:11 31.15291 121.80792 26 ft 4 kts 252°
2026-05-07 08:11 31.15298 121.80817 26 ft 3 kts 251°
2026-05-07 08:11 31.15310 121.80842 26 ft 4 kts 207°
2026-05-07 08:11 31.15334 121.80845 26 ft 4 kts 164°
2026-05-07 08:12 31.15357 121.80836 26 ft 2 kts 162°
2026-05-07 08:12 31.15359 121.80836 26 ft 0 kts 162°
2026-05-07 08:16 31.15350 121.80839 26 ft 3 kts 162°
2026-05-07 08:16 31.15325 121.80848 26 ft 5 kts 162°
2026-05-07 08:16 31.15278 121.80866 26 ft 9 kts 162°
2026-05-07 08:17 31.15211 121.80892 26 ft 11 kts 161°
2026-05-07 08:17 31.15137 121.80920 26 ft 12 kts 162°
2026-05-07 08:17 31.15053 121.80952 26 ft 14 kts 162°
2026-05-07 08:17 31.14961 121.80986 26 ft 13 kts 162°
2026-05-07 08:18 31.14876 121.81017 26 ft 12 kts 163°
2026-05-07 08:18 31.14799 121.81046 26 ft 11 kts 161°
2026-05-07 08:18 31.14728 121.81074 26 ft 10 kts 162°
2026-05-07 08:18 31.14665 121.81097 26 ft 9 kts 162°
2026-05-07 08:19 31.14602 121.81121 26 ft 10 kts 162°
2026-05-07 08:19 31.14539 121.81145 26 ft 10 kts 162°
2026-05-07 08:19 31.14474 121.81166 26 ft 9 kts 173°
2026-05-07 08:19 31.14434 121.81125 26 ft 8 kts 245°
2026-05-07 08:20 31.14413 121.81055 26 ft 10 kts 252°
2026-05-07 08:20 31.14389 121.80969 26 ft 12 kts 252°
2026-05-07 08:20 31.14361 121.80868 26 ft 14 kts 251°
2026-05-07 08:20 31.14329 121.80755 26 ft 15 kts 252°
2026-05-07 08:21 31.14295 121.80633 26 ft 17 kts 252°
2026-05-07 08:21 31.14260 121.80502 26 ft 16 kts 252°
2026-05-07 08:21 31.14226 121.80380 26 ft 15 kts 252°
2026-05-07 08:21 31.14194 121.80267 26 ft 14 kts 251°
2026-05-07 08:22 31.14165 121.80164 26 ft 13 kts 252°
2026-05-07 08:22 31.14139 121.80069 26 ft 12 kts 252°
2026-05-07 08:22 31.14115 121.79979 26 ft 12 kts 252°
2026-05-07 08:22 31.14090 121.79889 27 ft 12 kts 251°
2026-05-07 08:23 31.14064 121.79800 27 ft 12 kts 251°
2026-05-07 08:23 31.14046 121.79711 27 ft 11 kts 259°
2026-05-07 08:23 31.14019 121.79630 27 ft 9 kts 219°
2026-05-07 08:23 31.13960 121.79636 27 ft 9 kts 163°
2026-05-07 08:24 31.13899 121.79658 26 ft 10 kts 162°
2026-05-07 08:24 31.13829 121.79685 26 ft 11 kts 162°
2026-05-07 08:24 31.13751 121.79714 26 ft 12 kts 162°
2026-05-07 08:24 31.13668 121.79745 27 ft 13 kts 162°
2026-05-07 08:25 31.13577 121.79779 26 ft 14 kts 162°
2026-05-07 08:25 31.13480 121.79816 29 ft 15 kts 162°
2026-05-07 08:25 31.13386 121.79851 29 ft 14 kts 162°
2026-05-07 08:25 31.13298 121.79885 31 ft 13 kts 162°
2026-05-07 08:26 31.13138 121.79945 28 ft 11 kts 162°
2026-05-07 08:26 31.13070 121.79971 29 ft 10 kts 162°
2026-05-07 08:26 31.13010 121.79994 29 ft 8 kts 162°
2026-05-07 08:27 31.12967 121.80003 29 ft 5 kts 186°
2026-05-07 08:27 31.12948 121.79981 30 ft 3 kts 239°
2026-05-07 08:27 31.12947 121.79978 30 ft 0 kts 241°
2026-05-07 08:28 31.12943 121.79969 31 ft 3 kts 241°
2026-05-07 08:28 31.12928 121.79931 31 ft 7 kts 248°
2026-05-07 08:29 31.12911 121.79875 30 ft 7 kts 251°
2026-05-07 08:29 31.12901 121.79828 27 ft 3 kts 275°
2026-05-07 08:29 31.12909 121.79820 30 ft 1 kts 319°
2026-05-07 08:29 31.12927 121.79808 31 ft 6 kts 335°
2026-05-07 08:30 31.13016 121.79771 29 ft 30 kts 341°
2026-05-07 08:30 31.13383 121.79633 27 ft 79 kts 342°
2026-05-07 08:30 31.14041 121.79385 28 ft 121 kts 342°
2026-05-07 08:30 31.14963 121.79038 28 ft 156 kts 342°
2026-05-07 08:31 31.15325 121.78901 27 ft 167 kts 342°
2026-05-07 08:31 31.16167 121.78582 86 ft 182 kts 342°
2026-05-07 08:31 31.17350 121.78129 574 ft 178 kts 343°
2026-05-07 08:31 31.18520 121.77657 1047 ft 177 kts 341°
2026-05-07 08:32 31.19706 121.77167 1386 ft 186 kts 341°
2026-05-07 08:32 31.20969 121.76657 1599 ft 200 kts 341°
2026-05-07 08:32 31.22362 121.76093 1720 ft 224 kts 342°
2026-05-07 08:32 31.23900 121.75459 1982 ft 243 kts 341°
2026-05-07 08:33 31.25511 121.74769 2433 ft 251 kts 339°
2026-05-07 08:33 31.27177 121.74048 2774 ft 265 kts 339°
2026-05-07 08:33 31.28947 121.73297 3271 ft 273 kts 339°
2026-05-07 08:33 31.30742 121.72537 3864 ft 275 kts 340°
2026-05-07 08:34 31.32574 121.71831 4481 ft 278 kts 341°
2026-05-07 08:34 31.34432 121.71117 5082 ft 281 kts 340°
2026-05-07 08:34 31.36293 121.70400 5735 ft 282 kts 340°
2026-05-07 08:34 31.38147 121.69707 6298 ft 285 kts 340°
2026-05-07 08:35 31.40050 121.68989 6875 ft 287 kts 340°
2026-05-07 08:35 31.41957 121.68268 7522 ft 287 kts 340°
2026-05-07 08:35 31.43864 121.67542 8103 ft 289 kts 339°
2026-05-07 08:35 31.45761 121.66821 8650 ft 291 kts 340°
2026-05-07 08:36 31.47697 121.66091 9228 ft 293 kts 339°
2026-05-07 08:36 31.49646 121.65348 9794 ft 295 kts 339°
2026-05-07 08:36 31.51556 121.64620 10211 ft 300 kts 338°
2026-05-07 08:36 31.53583 121.63831 10418 ft 312 kts 336°
2026-05-07 08:37 31.55504 121.62600 10596 ft 319 kts 317°
2026-05-07 08:37 31.57150 121.60809 10813 ft 328 kts 312°
2026-05-07 08:37 31.58775 121.58865 11019 ft 340 kts 311°
2026-05-07 08:37 31.60455 121.56849 11230 ft 351 kts 311°
2026-05-07 08:38 31.62168 121.54805 11514 ft 359 kts 311°
2026-05-07 08:38 31.63939 121.52700 11948 ft 363 kts 311°
2026-05-07 08:38 31.65725 121.50581 12405 ft 366 kts 312°
2026-05-07 08:38 31.67522 121.48448 12844 ft 369 kts 312°
2026-05-07 08:39 31.69338 121.46293 13320 ft 371 kts 312°
2026-05-07 08:39 31.71133 121.44164 13794 ft 373 kts 312°
2026-05-07 08:39 31.72963 121.41991 14216 ft 375 kts 312°
2026-05-07 08:39 31.74808 121.39801 14603 ft 378 kts 312°
2026-05-07 08:40 31.76666 121.37592 15048 ft 379 kts 311°
2026-05-07 08:40 31.78527 121.35377 15475 ft 382 kts 311°
2026-05-07 08:40 31.80400 121.33148 15897 ft 384 kts 311°
2026-05-07 08:40 31.82261 121.30932 16300 ft 386 kts 311°
2026-05-07 08:41 31.84157 121.28671 16720 ft 389 kts 311°
2026-05-07 08:41 31.86063 121.26399 17157 ft 390 kts 311°
2026-05-07 08:41 31.87973 121.24119 17571 ft 392 kts 311°
2026-05-07 08:41 31.89895 121.21823 17959 ft 395 kts 311°
2026-05-07 08:42 31.91827 121.19514 18320 ft 398 kts 311°
2026-05-07 08:42 31.93121 121.17967 18533 ft 400 kts 311°
2026-05-07 08:42 31.95075 121.15630 18864 ft 401 kts 311°
2026-05-07 08:42 31.97040 121.13278 19199 ft 403 kts 311°
2026-05-07 08:43 31.99012 121.10917 19540 ft 405 kts 310°
2026-05-07 08:43 32.00994 121.08542 19880 ft 407 kts 310°
2026-05-07 08:43 32.02987 121.06152 20197 ft 409 kts 310°
2026-05-07 08:43 32.04984 121.03756 20545 ft 410 kts 310°
2026-05-07 08:44 32.06986 121.01351 20874 ft 412 kts 310°
2026-05-07 08:44 32.08872 120.98815 21174 ft 410 kts 302°
2026-05-07 08:44 32.10288 120.95964 21474 ft 408 kts 291°
2026-05-07 08:44 32.11284 120.92836 21872 ft 406 kts 286°
2026-05-07 08:45 32.12164 120.89673 22209 ft 407 kts 285°
2026-05-07 08:45 32.13038 120.86486 22495 ft 409 kts 285°
2026-05-07 08:45 32.13917 120.83288 22783 ft 410 kts 285°
2026-05-07 08:45 32.14802 120.80080 23096 ft 412 kts 285°
2026-05-07 08:46 32.15692 120.76859 23397 ft 414 kts 285°
2026-05-07 08:46 32.16493 120.73592 23665 ft 414 kts 280°
2026-05-07 08:46 32.16979 120.70244 23890 ft 415 kts 276°
2026-05-07 08:46 32.17321 120.66906 24119 ft 416 kts 275°
2026-05-07 08:47 32.17600 120.63496 24355 ft 417 kts 274°
2026-05-07 08:47 32.17853 120.60076 24604 ft 419 kts 274°
2026-05-07 08:47 32.18105 120.56646 24845 ft 420 kts 274°
2026-05-07 08:47 32.18365 120.53205 25070 ft 422 kts 274°
2026-05-07 08:48 32.18637 120.49748 25313 ft 423 kts 274°
2026-05-07 08:48 32.18917 120.46280 25556 ft 425 kts 274°
2026-05-07 08:48 32.19201 120.42798 25790 ft 426 kts 274°
2026-05-07 08:48 32.19489 120.39309 26031 ft 428 kts 274°
2026-05-07 08:49 32.19773 120.35854 26241 ft 429 kts 274°
2026-05-07 08:49 32.20061 120.32337 26467 ft 431 kts 274°
2026-05-07 08:49 32.20349 120.28810 26694 ft 432 kts 274°
2026-05-07 08:49 32.20640 120.25274 26908 ft 433 kts 274°
2026-05-07 08:50 32.20932 120.21722 27122 ft 435 kts 274°
2026-05-07 08:50 32.21223 120.18162 27330 ft 436 kts 274°
2026-05-07 08:50 32.21513 120.14590 27533 ft 438 kts 274°
2026-05-07 08:50 32.21804 120.10996 27737 ft 439 kts 274°
2026-05-07 08:51 32.22095 120.07390 27949 ft 440 kts 274°
2026-05-07 08:51 32.22382 120.03826 28156 ft 441 kts 274°
2026-05-07 08:51 32.22673 120.00201 28342 ft 442 kts 274°
2026-05-07 08:51 32.22963 119.96579 28530 ft 444 kts 274°
2026-05-07 08:52 32.23253 119.92932 28724 ft 445 kts 274°
2026-05-07 08:52 32.23542 119.89297 28992 ft 444 kts 274°
2026-05-07 08:52 32.23917 119.85680 29260 ft 444 kts 279°
2026-05-07 08:52 32.24628 119.82181 29525 ft 445 kts 285°
2026-05-07 08:53 32.25753 119.78776 29782 ft 447 kts 293°
2026-05-07 08:53 32.27304 119.75583 30033 ft 449 kts 301°
2026-05-07 08:53 32.29271 119.72687 30234 ft 454 kts 309°
2026-05-07 08:53 32.31613 119.70165 30427 ft 459 kts 317°
2026-05-07 08:54 32.34152 119.67862 30634 ft 459 kts 318°
2026-05-07 08:54 32.36741 119.65637 30826 ft 459 kts 319°
2026-05-07 08:54 32.39357 119.63439 31005 ft 459 kts 320°
2026-05-07 08:54 32.41930 119.61287 31199 ft 459 kts 319°
2026-05-07 08:55 32.44539 119.59095 31376 ft 458 kts 319°
2026-05-07 08:55 32.47139 119.56897 31553 ft 458 kts 319°
2026-05-07 08:55 32.49730 119.54694 31724 ft 457 kts 319°
2026-05-07 08:55 32.52273 119.52504 31925 ft 456 kts 319°
2026-05-07 08:56 32.54828 119.50290 32153 ft 454 kts 319°
2026-05-07 08:56 32.57381 119.48073 32219 ft 453 kts 319°
2026-05-07 08:56 32.62419 119.43703 32217 ft 446 kts 319°
2026-05-07 08:57 32.67431 119.39352 32217 ft 446 kts 319°
2026-05-07 08:57 32.72443 119.34998 32220 ft 446 kts 319°
2026-05-07 08:58 32.77420 119.30672 32216 ft 446 kts 319°
2026-05-07 08:58 32.82427 119.26314 32221 ft 446 kts 319°
2026-05-07 08:59 32.87432 119.21951 32225 ft 446 kts 319°
2026-05-07 08:59 32.92430 119.17588 32232 ft 446 kts 319°
2026-05-07 09:00 32.97436 119.13237 32229 ft 445 kts 319°
2026-05-07 09:00 33.02467 119.08911 32238 ft 445 kts 319°
2026-05-07 09:01 33.07495 119.04586 32236 ft 446 kts 319°
2026-05-07 09:01 33.12488 119.00277 32238 ft 446 kts 319°
2026-05-07 09:02 33.17509 118.95935 32240 ft 445 kts 318°
2026-05-07 09:02 33.22518 118.91601 32239 ft 442 kts 318°
2026-05-07 09:03 33.27478 118.87266 32240 ft 442 kts 318°
2026-05-07 09:03 33.32445 118.82927 32240 ft 442 kts 318°
2026-05-07 09:04 33.37435 118.78603 32239 ft 442 kts 318°
2026-05-07 09:04 33.42387 118.74311 32240 ft 442 kts 318°
2026-05-07 09:05 33.47366 118.69989 32242 ft 442 kts 318°
2026-05-07 09:05 33.52341 118.65683 32247 ft 441 kts 318°
2026-05-07 09:06 33.57311 118.61369 32234 ft 441 kts 317°
2026-05-07 09:06 33.62285 118.57045 32234 ft 441 kts 317°
2026-05-07 09:07 33.67253 118.52722 32231 ft 441 kts 317°
2026-05-07 09:07 33.72190 118.48420 32231 ft 441 kts 317°
2026-05-07 09:08 33.77149 118.44093 32233 ft 440 kts 317°
2026-05-07 09:08 33.82090 118.39777 32226 ft 437 kts 317°
2026-05-07 09:09 33.87013 118.35470 32226 ft 437 kts 317°
2026-05-07 09:09 33.91918 118.31174 32223 ft 435 kts 317°
2026-05-07 09:10 33.96782 118.26901 32220 ft 435 kts 317°
2026-05-07 09:10 34.01690 118.22612 32220 ft 435 kts 317°
2026-05-07 09:11 34.06614 118.18329 32223 ft 435 kts 317°
2026-05-07 09:11 34.11508 118.14073 32222 ft 432 kts 317°
2026-05-07 09:12 34.16359 118.09848 32223 ft 432 kts 317°
2026-05-07 09:12 34.21238 118.05590 32222 ft 432 kts 317°
2026-05-07 09:13 34.26164 118.01411 32222 ft 436 kts 322°
2026-05-07 09:13 34.31799 117.98422 32225 ft 449 kts 333°
2026-05-07 09:14 34.37791 117.96183 32221 ft 451 kts 335°
2026-05-07 09:14 34.43786 117.94088 32229 ft 450 kts 335°
2026-05-07 09:15 34.49816 117.91969 32228 ft 450 kts 334°
2026-05-07 09:15 34.55829 117.89826 32234 ft 450 kts 334°
2026-05-07 09:16 34.61834 117.87672 32233 ft 449 kts 334°
2026-05-07 09:16 34.67799 117.85528 32234 ft 449 kts 334°
2026-05-07 09:17 34.73793 117.83370 32242 ft 449 kts 334°
2026-05-07 09:17 34.79796 117.81206 32242 ft 449 kts 334°
2026-05-07 09:18 34.85757 117.79058 32256 ft 449 kts 333°
2026-05-07 09:18 34.91709 117.76882 32248 ft 445 kts 333°
2026-05-07 09:19 34.97653 117.74692 32246 ft 445 kts 333°
2026-05-07 09:19 35.03552 117.72535 32254 ft 444 kts 333°
2026-05-07 09:20 35.09480 117.70362 32285 ft 445 kts 333°
2026-05-07 09:20 35.15396 117.68189 32264 ft 443 kts 333°
2026-05-07 09:21 35.21268 117.66028 32254 ft 442 kts 333°
2026-05-07 09:21 35.27172 117.63851 32261 ft 443 kts 333°
2026-05-07 09:22 35.33071 117.61679 32261 ft 443 kts 333°
2026-05-07 09:22 35.38971 117.59504 32266 ft 440 kts 332°
2026-05-07 09:23 35.44821 117.57345 32270 ft 438 kts 332°
2026-05-07 09:23 35.50638 117.55190 32268 ft 438 kts 332°
2026-05-07 09:24 35.56489 117.53022 32271 ft 438 kts 332°
2026-05-07 09:24 35.62333 117.50851 32270 ft 439 kts 332°
2026-05-07 09:25 35.68143 117.48688 32276 ft 439 kts 332°
2026-05-07 09:25 35.73991 117.46510 32280 ft 438 kts 332°
2026-05-07 09:26 35.79823 117.44335 32278 ft 437 kts 332°
2026-05-07 09:26 35.85606 117.42177 32290 ft 436 kts 332°
2026-05-07 09:27 35.91408 117.40010 32283 ft 434 kts 332°
2026-05-07 09:28 36.00059 117.36766 32279 ft 434 kts 332°
2026-05-07 09:28 36.05847 117.34615 32282 ft 435 kts 332°
2026-05-07 09:29 36.11650 117.32478 32290 ft 432 kts 332°
2026-05-07 09:29 36.17410 117.30390 32288 ft 430 kts 331°
2026-05-07 09:30 36.23140 117.28248 32291 ft 430 kts 331°
2026-05-07 09:30 36.28874 117.26101 32293 ft 430 kts 331°
2026-05-07 09:31 36.34580 117.23991 32297 ft 427 kts 331°
2026-05-07 09:31 36.40242 117.21880 32313 ft 422 kts 329°
2026-05-07 09:32 36.45630 117.19279 32301 ft 414 kts 326°
2026-05-07 09:32 36.50930 117.16556 32300 ft 414 kts 325°
2026-05-07 09:33 36.56240 117.13789 32329 ft 413 kts 324°
2026-05-07 09:33 36.60647 117.11489 32301 ft 412 kts 324°
2026-05-07 09:34 36.65923 117.08737 32300 ft 411 kts 324°
2026-05-07 09:34 36.71195 117.05981 32301 ft 411 kts 324°
2026-05-07 09:35 36.76469 117.03220 32303 ft 411 kts 324°
2026-05-07 09:35 36.81749 117.00454 32354 ft 411 kts 324°
2026-05-07 09:36 36.86975 116.97716 32305 ft 407 kts 324°
2026-05-07 09:36 36.92198 116.94974 32303 ft 406 kts 324°
2026-05-07 09:37 36.97414 116.92226 32305 ft 407 kts 324°
2026-05-07 09:37 37.02635 116.89472 32299 ft 407 kts 324°
2026-05-07 09:38 37.07824 116.86733 32328 ft 406 kts 324°
2026-05-07 09:38 37.12990 116.84013 32309 ft 400 kts 323°
2026-05-07 09:39 37.18113 116.81299 32307 ft 399 kts 323°
2026-05-07 09:39 37.23337 116.78813 32307 ft 408 kts 328°
2026-05-07 09:40 37.28782 116.76690 32306 ft 410 kts 329°
2026-05-07 09:40 37.34250 116.74635 32315 ft 409 kts 329°
2026-05-07 09:41 37.39702 116.72593 32302 ft 408 kts 329°
2026-05-07 09:41 37.45141 116.70537 32294 ft 408 kts 329°
2026-05-07 09:42 37.50586 116.68470 32311 ft 408 kts 329°
2026-05-07 09:42 37.56019 116.66404 32319 ft 408 kts 330°
2026-05-07 09:43 37.61429 116.64345 32302 ft 408 kts 330°
2026-05-07 09:43 37.66860 116.62275 32305 ft 408 kts 330°
2026-05-07 09:44 37.72297 116.60200 32304 ft 408 kts 330°
2026-05-07 09:44 37.77734 116.58121 32303 ft 408 kts 330°
2026-05-07 09:45 37.83174 116.56033 32300 ft 409 kts 331°
2026-05-07 09:45 37.88592 116.53951 32301 ft 408 kts 331°
2026-05-07 09:46 37.94024 116.51865 32297 ft 406 kts 330°
2026-05-07 09:46 37.99025 116.48948 32301 ft 387 kts 317°
2026-05-07 09:47 38.03453 116.45120 32301 ft 384 kts 315°
2026-05-07 09:47 38.07776 116.41145 32298 ft 383 kts 315°
2026-05-07 09:48 38.12089 116.37150 32299 ft 384 kts 315°
2026-05-07 09:48 38.16413 116.33166 32302 ft 384 kts 315°
2026-05-07 09:49 38.20893 116.29405 32294 ft 393 kts 322°
2026-05-07 09:49 38.25924 116.27056 32296 ft 414 kts 336°
2026-05-07 09:49 38.28695 116.26566 32335 ft 427 kts 345°
2026-05-07 09:50 38.31725 116.26662 32292 ft 444 kts 354°
2026-05-07 09:50 38.34829 116.27397 32302 ft 457 kts
2026-05-07 09:50 38.37933 116.28377 32291 ft 461 kts
2026-05-07 09:51 38.44115 116.30536 32289 ft 464 kts
2026-05-07 09:51 38.50338 116.32756 32303 ft 463 kts
2026-05-07 09:52 38.56558 116.34937 32286 ft 463 kts
2026-05-07 09:52 38.62775 116.37094 32283 ft 462 kts
2026-05-07 09:53 38.68985 116.39258 32304 ft 463 kts
2026-05-07 09:53 38.75158 116.41430 32282 ft 461 kts
2026-05-07 09:54 38.81350 116.43613 32281 ft 461 kts
2026-05-07 09:54 38.87552 116.45802 32297 ft 462 kts
2026-05-07 09:55 38.93738 116.47992 32279 ft 460 kts
2026-05-07 09:55 38.99886 116.50168 32276 ft 460 kts
2026-05-07 09:56 39.06066 116.52360 32320 ft 461 kts
2026-05-07 09:56 39.12217 116.54550 32273 ft 456 kts
2026-05-07 09:57 39.18335 116.56732 32287 ft 456 kts
2026-05-07 09:57 39.24454 116.59156 32313 ft 465 kts 10°
2026-05-07 09:58 39.30484 116.62072 32270 ft 464 kts 11°
2026-05-07 09:58 39.36520 116.65015 32268 ft 463 kts 11°
2026-05-07 09:59 39.42560 116.67875 32288 ft 462 kts 11°
2026-05-07 09:59 39.48615 116.70705 32269 ft 460 kts 11°
2026-05-07 10:00 39.54611 116.73506 32264 ft 460 kts 11°
2026-05-07 10:00 39.60633 116.76325 32304 ft 460 kts 11°
2026-05-07 10:01 39.66662 116.79157 32257 ft 459 kts 11°
2026-05-07 10:01 39.72662 116.81983 32250 ft 459 kts 11°
2026-05-07 10:02 39.78725 116.84308 32258 ft 446 kts
2026-05-07 10:02 39.84749 116.84424 32254 ft 430 kts 347°
2026-05-07 10:03 39.90669 116.83383 32248 ft 429 kts 345°
2026-05-07 10:03 39.96567 116.82169 32245 ft 429 kts 344°
2026-05-07 10:04 40.02484 116.80949 32244 ft 429 kts 344°
2026-05-07 10:04 40.08366 116.79761 32239 ft 429 kts 345°
2026-05-07 10:05 40.14268 116.78579 32256 ft 429 kts 345°
2026-05-07 10:05 40.20185 116.77393 32247 ft 429 kts 345°
2026-05-07 10:06 40.26089 116.76208 32248 ft 429 kts 345°
2026-05-07 10:06 40.31992 116.74975 32246 ft 427 kts 342°
2026-05-07 10:07 40.37683 116.72940 32247 ft 423 kts 338°
2026-05-07 10:07 40.43290 116.70699 32263 ft 423 kts 338°
2026-05-07 10:08 40.48911 116.68413 32255 ft 422 kts 338°
2026-05-07 10:08 40.54519 116.66117 32247 ft 422 kts 338°
2026-05-07 10:09 40.60127 116.63837 32257 ft 422 kts 338°
2026-05-07 10:09 40.65739 116.61562 32265 ft 422 kts 338°
2026-05-07 10:10 40.71309 116.59295 32260 ft 421 kts 338°
2026-05-07 10:10 40.76936 116.57130 32258 ft 424 kts 343°
2026-05-07 10:11 40.82841 116.56149 32263 ft 428 kts 349°
2026-05-07 10:11 40.88774 116.55562 32266 ft 427 kts 351°
2026-05-07 10:12 40.94711 116.55053 32261 ft 426 kts 351°
2026-05-07 10:12 41.00589 116.54519 32271 ft 425 kts 351°
2026-05-07 10:13 41.06495 116.53985 32274 ft 425 kts 351°
2026-05-07 10:13 41.12403 116.53440 32266 ft 425 kts 351°
2026-05-07 10:14 41.18308 116.52875 32269 ft 425 kts 351°
2026-05-07 10:14 41.24042 116.51562 32271 ft 417 kts 338°
2026-05-07 10:15 41.29280 116.48356 32273 ft 415 kts 329°
2026-05-07 10:15 41.34275 116.44486 32276 ft 415 kts 327°
2026-05-07 10:16 41.39235 116.40512 32274 ft 416 kts 327°
2026-05-07 10:16 41.44199 116.36537 32278 ft 416 kts 327°
2026-05-07 10:17 41.49138 116.32612 32296 ft 415 kts 328°
2026-05-07 10:17 41.53741 116.28960 32280 ft 417 kts 328°
2026-05-07 10:18 41.58728 116.24990 32274 ft 417 kts 328°
2026-05-07 10:18 41.63702 116.21027 32286 ft 415 kts 328°
2026-05-07 10:19 41.67836 116.17719 32287 ft 415 kts 328°
2026-05-07 10:19 41.72804 116.13738 32311 ft 415 kts 328°
2026-05-07 10:20 41.77736 116.09782 32295 ft 415 kts 328°
2026-05-07 10:20 41.82696 116.05796 32288 ft 415 kts 328°
2026-05-07 10:21 41.87650 116.01809 32292 ft 416 kts 328°
2026-05-07 10:21 41.92557 115.97704 32294 ft 415 kts 323°
2026-05-07 10:22 41.96708 115.92334 32291 ft 415 kts 309°
2026-05-07 10:22 41.99773 115.85736 32292 ft 418 kts 302°
2026-05-07 10:23 42.02548 115.78892 32303 ft 420 kts 301°
2026-05-07 10:23 42.05302 115.71968 32287 ft 419 kts 301°
2026-05-07 10:24 42.08073 115.65049 32300 ft 419 kts 301°
2026-05-07 10:24 42.10785 115.58307 32300 ft 419 kts 301°
2026-05-07 10:25 42.13561 115.51403 32305 ft 419 kts 301°
2026-05-07 10:25 42.16331 115.44498 32302 ft 419 kts 301°
2026-05-07 10:26 42.19102 115.37569 32292 ft 419 kts 301°
2026-05-07 10:26 42.21702 115.30583 32306 ft 421 kts 294°
2026-05-07 10:27 42.23065 115.22850 32309 ft 430 kts 279°
2026-05-07 10:27 42.22899 115.14698 32311 ft 437 kts 271°
2026-05-07 10:28 42.22325 115.06557 32311 ft 439 kts 270°
2026-05-07 10:28 42.21696 114.98367 32310 ft 438 kts 270°
2026-05-07 10:29 42.21094 114.90198 32300 ft 437 kts 271°
2026-05-07 10:29 42.20508 114.82027 32316 ft 437 kts 271°
2026-05-07 10:30 42.19632 114.69851 32318 ft 437 kts 270°
2026-05-07 10:30 42.19035 114.61688 32317 ft 437 kts 270°
2026-05-07 10:31 42.18432 114.53523 32318 ft 437 kts 270°
2026-05-07 10:31 42.17826 114.45406 32321 ft 437 kts 270°
2026-05-07 10:32 42.17211 114.37232 32305 ft 437 kts 270°
2026-05-07 10:32 42.16595 114.29132 32326 ft 437 kts 270°
2026-05-07 10:33 42.15970 114.20994 32325 ft 436 kts 270°
2026-05-07 10:33 42.15338 114.12864 32328 ft 436 kts 270°
2026-05-07 10:34 42.14702 114.04728 32321 ft 436 kts 270°
2026-05-07 10:34 42.14060 113.96586 32329 ft 436 kts 270°
2026-05-07 10:35 42.13412 113.88455 32329 ft 436 kts 270°
2026-05-07 10:35 42.12766 113.80388 32333 ft 436 kts 270°
2026-05-07 10:36 42.12109 113.72259 32319 ft 436 kts 270°
2026-05-07 10:36 42.11441 113.64125 32330 ft 436 kts 270°
2026-05-07 10:37 42.10768 113.56005 32332 ft 435 kts 270°
2026-05-07 10:37 42.09876 113.47967 32335 ft 440 kts 264°
2026-05-07 10:38 42.08452 113.39922 32329 ft 442 kts 263°
2026-05-07 10:38 42.06936 113.31906 32330 ft 442 kts 263°
2026-05-07 10:39 42.05404 113.23888 32331 ft 442 kts 263°
2026-05-07 10:39 42.03878 113.15879 32344 ft 441 kts 263°
2026-05-07 10:40 42.02367 113.07931 32333 ft 441 kts 264°
2026-05-07 10:40 42.00841 112.99951 32342 ft 440 kts 264°
2026-05-07 10:41 41.99311 112.91977 32340 ft 440 kts 264°
2026-05-07 10:41 41.97775 112.84002 32343 ft 440 kts 264°
2026-05-07 10:42 41.96232 112.76028 32333 ft 440 kts 264°
2026-05-07 10:42 41.94911 112.68098 32349 ft 431 kts 271°
2026-05-07 10:43 41.95035 112.60240 32343 ft 414 kts 287°
2026-05-07 10:43 41.96365 112.52749 32344 ft 411 kts 291°
2026-05-07 10:44 41.97891 112.45359 32305 ft 410 kts 291°
2026-05-07 10:44 41.99416 112.38017 32338 ft 409 kts 291°
2026-05-07 10:45 42.00924 112.30621 32339 ft 409 kts 291°
2026-05-07 10:45 42.02413 112.23220 32339 ft 410 kts 291°
2026-05-07 10:46 42.03894 112.15818 32334 ft 409 kts 291°
2026-05-07 10:46 42.05363 112.08455 32334 ft 410 kts 291°
2026-05-07 10:47 42.06840 112.01027 32333 ft 410 kts 291°
2026-05-07 10:47 42.08305 111.93638 32332 ft 410 kts 291°
2026-05-07 10:48 42.09770 111.86213 32325 ft 410 kts 291°
2026-05-07 10:48 42.11231 111.78784 32282 ft 410 kts 290°
2026-05-07 10:49 42.12698 111.71306 32321 ft 413 kts 290°
2026-05-07 10:49 42.14153 111.63854 32325 ft 413 kts 290°
2026-05-07 10:50 42.15610 111.56352 32321 ft 413 kts 290°
2026-05-07 10:50 42.17062 111.48851 32319 ft 413 kts 290°
2026-05-07 10:51 42.18503 111.41384 32320 ft 413 kts 290°
2026-05-07 10:51 42.19877 111.33837 32314 ft 417 kts 285°
2026-05-07 10:52 42.20115 111.25938 32305 ft 428 kts 271°
2026-05-07 10:52 42.19394 111.17937 32304 ft 431 kts 269°
2026-05-07 10:53 42.18507 111.09966 32301 ft 432 kts 268°
2026-05-07 10:53 42.17606 111.01947 32306 ft 433 kts 268°
2026-05-07 10:54 42.16722 110.93918 32303 ft 432 kts 269°
2026-05-07 10:54 42.15846 110.85904 32300 ft 432 kts 269°
2026-05-07 10:55 42.14966 110.77880 32286 ft 433 kts 268°
2026-05-07 10:55 42.14077 110.69838 32291 ft 433 kts 268°
2026-05-07 10:56 42.13182 110.61803 32290 ft 433 kts 268°
2026-05-07 10:56 42.12288 110.53839 32287 ft 432 kts 268°
2026-05-07 10:57 42.11382 110.45819 32255 ft 432 kts 268°
2026-05-07 10:57 42.10472 110.37798 32281 ft 434 kts 268°
2026-05-07 10:58 42.09553 110.29757 32279 ft 434 kts 268°
2026-05-07 10:58 42.08627 110.21715 32279 ft 434 kts 267°
2026-05-07 10:59 42.07703 110.13736 32274 ft 434 kts 267°
2026-05-07 10:59 42.06764 110.05680 32270 ft 436 kts 267°
2026-05-07 11:00 42.05817 109.97603 32268 ft 436 kts 267°
2026-05-07 11:00 42.04865 109.89539 32270 ft 435 kts 267°
2026-05-07 11:01 42.03917 109.81553 32269 ft 435 kts 266°
2026-05-07 11:01 42.02956 109.73506 32261 ft 436 kts 266°
2026-05-07 11:02 42.01988 109.65440 32261 ft 436 kts 266°
2026-05-07 11:02 42.01013 109.57388 32260 ft 436 kts 266°
2026-05-07 11:03 42.00032 109.49324 32252 ft 436 kts 266°
2026-05-07 11:03 41.99046 109.41270 32263 ft 436 kts 266°
2026-05-07 11:04 41.98060 109.33270 32256 ft 436 kts 266°
2026-05-07 11:04 41.97064 109.25224 32251 ft 435 kts 266°
2026-05-07 11:05 41.96063 109.17201 32256 ft 434 kts 266°
2026-05-07 11:05 41.95060 109.09203 32249 ft 435 kts 266°
2026-05-07 11:06 41.94050 109.01178 32251 ft 436 kts 266°
2026-05-07 11:06 41.93040 108.93214 32249 ft 436 kts 265°
2026-05-07 11:07 41.92015 108.85182 32250 ft 436 kts 265°
2026-05-07 11:07 41.90986 108.77163 32228 ft 436 kts 266°
2026-05-07 11:08 41.89950 108.69133 32238 ft 436 kts 265°
2026-05-07 11:08 41.89083 108.62458 32245 ft 436 kts 265°
2026-05-07 11:09 41.87865 108.53125 32232 ft 436 kts 265°
2026-05-07 11:09 41.86983 108.46404 32227 ft 436 kts 265°
2026-05-07 11:10 41.85933 108.38436 32220 ft 436 kts 265°
2026-05-07 11:10 41.84873 108.30437 32228 ft 435 kts 265°
2026-05-07 11:11 41.83808 108.22453 32234 ft 435 kts 265°
2026-05-07 11:11 41.82738 108.14465 32231 ft 435 kts 265°
2026-05-07 11:12 41.81661 108.06475 32231 ft 435 kts 265°
2026-05-07 11:12 41.80583 107.98521 32230 ft 435 kts 265°
2026-05-07 11:13 41.79494 107.90528 32239 ft 435 kts 265°
2026-05-07 11:13 41.78401 107.82550 32233 ft 435 kts 265°
2026-05-07 11:14 41.77308 107.74618 32236 ft 435 kts 265°
2026-05-07 11:14 41.76202 107.66635 32231 ft 436 kts 264°
2026-05-07 11:15 41.75092 107.58663 32228 ft 436 kts 264°
2026-05-07 11:15 41.73975 107.50676 32228 ft 436 kts 264°
2026-05-07 11:16 41.72851 107.42690 32222 ft 436 kts 264°
2026-05-07 11:16 41.71731 107.34771 32223 ft 436 kts 264°
2026-05-07 11:17 41.70595 107.26782 32217 ft 436 kts 264°
2026-05-07 11:17 41.69457 107.18821 32218 ft 435 kts 264°
2026-05-07 11:18 41.68315 107.10878 32217 ft 435 kts 264°
2026-05-07 11:18 41.67168 107.02933 32192 ft 435 kts 263°
2026-05-07 11:19 41.66020 106.95017 32220 ft 436 kts 263°
2026-05-07 11:19 41.64857 106.87045 32213 ft 437 kts 263°
2026-05-07 11:20 41.63687 106.79071 32213 ft 437 kts 263°
2026-05-07 11:20 41.62512 106.71101 32213 ft 437 kts 263°
2026-05-07 11:21 41.61330 106.63105 32215 ft 440 kts 263°
2026-05-07 11:21 41.60134 106.55072 32205 ft 440 kts 263°
2026-05-07 11:22 41.58943 106.47123 32194 ft 439 kts 263°
2026-05-07 11:22 41.57738 106.39117 32208 ft 439 kts 263°
2026-05-07 11:23 41.56529 106.31114 32189 ft 440 kts 262°
2026-05-07 11:23 41.55311 106.23086 32196 ft 442 kts 262°
2026-05-07 11:24 41.54083 106.15046 32192 ft 442 kts 262°
2026-05-07 11:24 41.52416 106.07117 32194 ft 446 kts 253°
2026-05-07 11:25 41.50172 105.99365 32169 ft 447 kts 252°
2026-05-07 11:25 41.47848 105.91727 32176 ft 446 kts 251°
2026-05-07 11:26 41.45513 105.84088 32180 ft 444 kts 252°
2026-05-07 11:26 41.43196 105.76468 32177 ft 444 kts 252°
2026-05-07 11:27 41.40878 105.68841 32177 ft 444 kts 252°
2026-05-07 11:27 41.38566 105.61255 32169 ft 444 kts 251°
2026-05-07 11:28 41.36224 105.53648 32179 ft 443 kts 251°
2026-05-07 11:28 41.33862 105.46078 32172 ft 441 kts 251°
2026-05-07 11:29 41.31513 105.38568 32180 ft 438 kts 251°
2026-05-07 11:29 41.29187 105.31118 32179 ft 438 kts 251°
2026-05-07 11:30 41.26841 105.23617 32180 ft 439 kts 251°
2026-05-07 11:30 41.24488 105.16124 32185 ft 439 kts 251°
2026-05-07 11:31 41.22131 105.08641 32183 ft 439 kts 250°
2026-05-07 11:31 41.19768 105.01161 32186 ft 438 kts 251°
2026-05-07 11:32 41.16254 104.90061 32181 ft 438 kts 250°
2026-05-07 11:33 41.13862 104.82536 32193 ft 445 kts 250°
2026-05-07 11:33 41.11449 104.74977 32193 ft 444 kts 250°
2026-05-07 11:34 41.09057 104.67473 32193 ft 444 kts 251°
2026-05-07 11:34 41.06743 104.59892 32196 ft 443 kts 251°
2026-05-07 11:35 41.04457 104.52318 32192 ft 440 kts 252°
2026-05-07 11:35 41.02183 104.44847 32197 ft 435 kts 252°
2026-05-07 11:36 41.00177 104.37373 32197 ft 431 kts 260°
2026-05-07 11:36 40.99595 104.29555 32201 ft 426 kts 275°
2026-05-07 11:37 41.00766 104.21911 32201 ft 425 kts 288°
2026-05-07 11:37 41.02807 104.14560 32194 ft 425 kts 290°
2026-05-07 11:38 41.04946 104.07308 32191 ft 425 kts 290°
2026-05-07 11:38 41.07086 103.99976 32193 ft 425 kts 290°
2026-05-07 11:39 41.09191 103.92651 32191 ft 425 kts 290°
2026-05-07 11:39 41.11281 103.85316 32180 ft 425 kts 290°
2026-05-07 11:40 41.13352 103.78028 32183 ft 424 kts 289°
2026-05-07 11:40 41.15429 103.70701 32187 ft 424 kts 289°
2026-05-07 11:41 41.17500 103.63374 32207 ft 424 kts 290°
2026-05-07 11:41 41.19584 103.55983 32188 ft 432 kts 290°
2026-05-07 11:42 41.21704 103.48430 32179 ft 439 kts 289°
2026-05-07 11:42 41.23829 103.40853 32192 ft 435 kts 289°
2026-05-07 11:43 41.25924 103.33364 32176 ft 435 kts 289°
2026-05-07 11:43 41.28023 103.25827 32179 ft 435 kts 289°
2026-05-07 11:44 41.30122 103.18272 32181 ft 435 kts 289°
2026-05-07 11:44 41.32200 103.10768 32176 ft 435 kts 289°
2026-05-07 11:45 41.34288 103.03207 32174 ft 435 kts 289°
2026-05-07 11:45 41.36384 102.95643 32182 ft 435 kts 290°
2026-05-07 11:46 41.38558 102.88116 32184 ft 435 kts 290°
2026-05-07 11:46 41.40746 102.80590 32177 ft 435 kts 290°
2026-05-07 11:47 41.42908 102.73099 32170 ft 435 kts 290°
2026-05-07 11:47 41.45068 102.65575 32164 ft 433 kts 290°
2026-05-07 11:48 41.47228 102.58064 32166 ft 433 kts 290°
2026-05-07 11:48 41.49384 102.50551 32166 ft 433 kts 290°
2026-05-07 11:49 41.51535 102.43029 32165 ft 433 kts 290°
2026-05-07 11:49 41.53671 102.35543 32168 ft 436 kts 290°
2026-05-07 11:50 41.55840 102.27890 32161 ft 445 kts 290°
2026-05-07 11:50 41.58039 102.20132 32159 ft 446 kts 290°
2026-05-07 11:51 41.60231 102.12381 32161 ft 445 kts 290°
2026-05-07 11:51 41.62412 102.04640 32158 ft 445 kts 290°
2026-05-07 11:52 41.64573 101.96946 32156 ft 444 kts 289°
2026-05-07 11:52 41.66741 101.89197 32148 ft 444 kts 289°
2026-05-07 11:53 41.68906 101.81438 32148 ft 444 kts 289°
2026-05-07 11:53 41.71047 101.73740 32144 ft 444 kts 289°
2026-05-07 11:54 41.73201 101.65974 32147 ft 444 kts 289°
2026-05-07 11:54 41.75352 101.58192 32145 ft 446 kts 289°
2026-05-07 11:55 41.77505 101.50380 32148 ft 446 kts 289°
2026-05-07 11:55 41.79637 101.42625 32144 ft 446 kts 289°
2026-05-07 11:56 41.81775 101.34816 32140 ft 446 kts 289°
2026-05-07 11:56 41.83903 101.26992 32140 ft 446 kts 288°
2026-05-07 11:57 41.85132 101.18877 32148 ft 444 kts 274°
2026-05-07 11:57 41.85423 101.11993 32147 ft 445 kts 272°
2026-05-07 11:58 41.85641 101.02329 32148 ft 445 kts 272°
2026-05-07 11:58 41.85780 100.95374 32141 ft 445 kts 272°
2026-05-07 11:59 41.85956 100.87123 32142 ft 445 kts 272°
2026-05-07 11:59 41.86140 100.78794 32142 ft 445 kts 272°
2026-05-07 12:00 41.86319 100.70488 32144 ft 445 kts 272°
2026-05-07 12:00 41.86491 100.62228 32138 ft 445 kts 272°
2026-05-07 12:01 41.86658 100.53925 32145 ft 445 kts 271°
2026-05-07 12:01 41.86819 100.45609 32135 ft 445 kts 271°
2026-05-07 12:02 41.86972 100.37358 32137 ft 445 kts 271°
2026-05-07 12:02 41.87121 100.29048 32134 ft 445 kts 271°
2026-05-07 12:03 41.87263 100.20749 32130 ft 445 kts 271°
2026-05-07 12:03 41.87400 100.12437 32124 ft 446 kts 271°
2026-05-07 12:04 41.87531 100.04099 32140 ft 446 kts 271°
2026-05-07 12:04 41.87656 99.95772 32134 ft 446 kts 271°
2026-05-07 12:05 41.87774 99.87452 32134 ft 446 kts 271°
2026-05-07 12:05 41.87887 99.79126 32136 ft 447 kts 271°
2026-05-07 12:06 41.87994 99.70808 32138 ft 449 kts 271°
2026-05-07 12:06 41.88095 99.62422 32127 ft 449 kts 271°
2026-05-07 12:07 41.88191 99.54024 32128 ft 449 kts 271°
2026-05-07 12:07 41.88279 99.45681 32125 ft 449 kts 271°
2026-05-07 12:08 41.88362 99.37297 32139 ft 449 kts 271°
2026-05-07 12:08 41.88440 99.28902 32137 ft 449 kts 271°
2026-05-07 12:09 41.88511 99.20499 32144 ft 449 kts 271°
2026-05-07 12:09 41.88576 99.12109 32144 ft 449 kts 271°
2026-05-07 12:10 41.88634 99.03774 32146 ft 449 kts 270°
2026-05-07 12:10 41.88687 98.95400 32146 ft 448 kts 270°
2026-05-07 12:11 41.88733 98.87012 32150 ft 448 kts 270°
2026-05-07 12:11 41.88774 98.78636 32154 ft 448 kts 270°
2026-05-07 12:12 41.88808 98.70314 32155 ft 448 kts 270°
2026-05-07 12:12 41.88836 98.61893 32157 ft 453 kts 270°
2026-05-07 12:13 41.88858 98.53429 32158 ft 453 kts 270°
2026-05-07 12:13 41.88875 98.45006 32160 ft 453 kts 270°
2026-05-07 12:14 41.88888 98.36575 32163 ft 446 kts 270°
2026-05-07 12:14 41.88897 98.28375 32166 ft 437 kts 270°
2026-05-07 12:15 41.88890 98.20215 32169 ft 437 kts 270°
2026-05-07 12:15 41.88879 98.12084 32166 ft 437 kts 270°
2026-05-07 12:16 41.88864 98.03921 32166 ft 437 kts 270°
2026-05-07 12:16 41.88845 97.95751 32165 ft 438 kts 269°
2026-05-07 12:17 41.88820 97.87533 32165 ft 442 kts 269°
2026-05-07 12:17 41.88789 97.79325 32166 ft 442 kts 269°
2026-05-07 12:18 41.88751 97.71064 32172 ft 442 kts 269°
2026-05-07 12:18 41.88708 97.62794 32172 ft 442 kts 269°
2026-05-07 12:19 41.88659 97.54531 32179 ft 443 kts 269°
2026-05-07 12:19 41.88604 97.46271 32179 ft 445 kts 269°
2026-05-07 12:20 41.88543 97.37967 32179 ft 445 kts 269°
2026-05-07 12:20 41.88476 97.29650 32180 ft 445 kts 269°
2026-05-07 12:21 41.88403 97.21385 32191 ft 445 kts 269°
2026-05-07 12:21 41.88324 97.13085 32199 ft 445 kts 269°
2026-05-07 12:22 41.88238 97.04777 32199 ft 445 kts 269°
2026-05-07 12:22 41.88147 96.96477 32207 ft 445 kts 269°
2026-05-07 12:23 41.88050 96.88167 32207 ft 445 kts 269°
2026-05-07 12:23 41.87946 96.79860 32216 ft 447 kts 269°
2026-05-07 12:24 41.87837 96.71530 32214 ft 450 kts 269°
2026-05-07 12:24 41.87721 96.63119 32223 ft 450 kts 269°
2026-05-07 12:25 41.87598 96.54731 32227 ft 450 kts 269°
2026-05-07 12:25 41.87469 96.46329 32233 ft 450 kts 269°
2026-05-07 12:26 41.87334 96.37907 32241 ft 453 kts 268°
2026-05-07 12:26 41.87193 96.29498 32240 ft 453 kts 268°
2026-05-07 12:27 41.87053 96.21039 32244 ft 453 kts 269°
2026-05-07 12:27 41.87004 96.12570 32245 ft 453 kts 269°
2026-05-07 12:28 41.86980 96.04137 32254 ft 455 kts 269°
2026-05-07 12:28 41.86936 95.95609 32253 ft 458 kts 269°
2026-05-07 12:29 41.86875 95.87069 32254 ft 458 kts 269°
2026-05-07 12:29 41.86819 95.80250 32255 ft 458 kts 269°
2026-05-07 12:30 41.86745 95.71753 32246 ft 458 kts 269°
2026-05-07 12:30 41.86663 95.63191 32238 ft 461 kts 269°
2026-05-07 12:31 41.86575 95.54576 32239 ft 462 kts 269°
2026-05-07 12:31 41.86481 95.45963 32229 ft 461 kts 269°
2026-05-07 12:32 41.86380 95.37357 32228 ft 462 kts 269°
2026-05-07 12:32 41.86349 95.28781 32217 ft 460 kts 273°
2026-05-07 12:33 41.88964 95.16518 32209 ft 463 kts 300°
2026-05-07 12:33 41.92836 95.09603 32198 ft 467 kts 309°
2026-05-07 12:34 41.97136 95.03050 32201 ft 467 kts 310°
2026-05-07 12:34 42.01469 94.96533 32182 ft 468 kts 310°
2026-05-07 12:35 42.05777 94.89972 32183 ft 467 kts 310°
2026-05-07 12:35 42.10056 94.83406 32168 ft 466 kts 311°
2026-05-07 12:36 42.14320 94.76839 32166 ft 469 kts 311°
2026-05-07 12:36 42.18606 94.70216 32152 ft 467 kts 311°
2026-05-07 12:37 42.22884 94.63603 32155 ft 468 kts 311°
2026-05-07 12:37 42.27169 94.56958 32141 ft 468 kts 311°
2026-05-07 12:38 42.31404 94.50350 32147 ft 468 kts 311°
2026-05-07 12:38 42.35679 94.43694 32146 ft 468 kts 311°
2026-05-07 12:39 42.39935 94.37050 32146 ft 466 kts 311°
2026-05-07 12:39 42.44177 94.30433 32144 ft 464 kts 311°
2026-05-07 12:40 42.48384 94.23835 32143 ft 466 kts 311°
2026-05-07 12:40 42.52609 94.17189 32143 ft 464 kts 311°
2026-05-07 12:41 42.56830 94.10531 32143 ft 465 kts 311°
2026-05-07 12:41 42.61048 94.03870 32144 ft 464 kts 311°
2026-05-07 12:42 42.65257 93.97209 32162 ft 464 kts 311°
2026-05-07 12:42 42.69431 93.90588 32144 ft 464 kts 311°
2026-05-07 12:43 42.73634 93.83905 32158 ft 464 kts 311°
2026-05-07 12:43 42.77826 93.77226 32142 ft 463 kts 310°
2026-05-07 12:44 42.81986 93.70529 32155 ft 462 kts 308°
2026-05-07 12:44 42.85196 93.62978 32157 ft 461 kts 292°
2026-05-07 12:45 42.87413 93.54807 32158 ft 464 kts 290°
2026-05-07 12:45 42.89475 93.46464 32162 ft 463 kts 289°
2026-05-07 12:46 42.91513 93.38129 32161 ft 464 kts 289°
2026-05-07 12:46 42.93222 93.31186 32152 ft 463 kts 289°
2026-05-07 12:47 42.95282 93.22846 32152 ft 463 kts 289°
2026-05-07 12:47 42.97328 93.14545 32149 ft 463 kts 289°
2026-05-07 12:48 42.99379 93.06189 32172 ft 463 kts 289°
2026-05-07 12:48 43.01414 92.97866 32164 ft 460 kts 289°
2026-05-07 12:49 43.03427 92.89585 32158 ft 459 kts 289°
2026-05-07 12:49 43.05420 92.81339 32158 ft 460 kts 289°
2026-05-07 12:50 43.07427 92.73050 32150 ft 458 kts 289°
2026-05-07 12:50 43.09435 92.64747 32141 ft 460 kts 289°
2026-05-07 12:51 43.11443 92.56408 32142 ft 461 kts 289°
2026-05-07 12:51 43.13440 92.48063 32140 ft 462 kts 289°
2026-05-07 12:52 43.15432 92.39703 32138 ft 461 kts 289°
2026-05-07 12:52 43.17406 92.31386 32163 ft 462 kts 289°
2026-05-07 12:53 43.19387 92.23015 32157 ft 462 kts 289°
2026-05-07 12:53 43.21366 92.14618 32154 ft 463 kts 289°
2026-05-07 12:54 43.23342 92.06203 32145 ft 463 kts 289°
2026-05-07 12:54 43.25296 91.97850 32150 ft 463 kts 288°
2026-05-07 12:55 43.27261 91.89418 32145 ft 463 kts 288°
2026-05-07 12:55 43.29221 91.80978 32138 ft 463 kts 288°
2026-05-07 12:56 43.31172 91.72542 32136 ft 464 kts 288°
2026-05-07 12:56 43.33107 91.64141 32135 ft 464 kts 288°
2026-05-07 12:57 43.35044 91.55702 32146 ft 463 kts 288°
2026-05-07 12:57 43.36977 91.47250 32153 ft 463 kts 288°
2026-05-07 12:58 43.38904 91.38789 32154 ft 463 kts 288°
2026-05-07 12:58 43.40824 91.30328 32163 ft 463 kts 288°
2026-05-07 12:59 43.42735 91.21859 32188 ft 463 kts 288°
2026-05-07 12:59 43.44614 91.13453 32180 ft 461 kts 288°
2026-05-07 13:00 43.46503 91.05017 32201 ft 461 kts 288°
2026-05-07 13:00 43.48387 90.96567 32202 ft 461 kts 288°
2026-05-07 13:01 43.50266 90.88115 32212 ft 461 kts 288°
2026-05-07 13:01 43.52138 90.79656 32220 ft 461 kts 288°
2026-05-07 13:02 43.53990 90.71249 32232 ft 461 kts 288°
2026-05-07 13:02 43.55849 90.62777 32232 ft 461 kts 288°
2026-05-07 13:03 43.57706 90.54281 32251 ft 461 kts 288°
2026-05-07 13:03 43.59551 90.45796 32262 ft 461 kts 288°
2026-05-07 13:04 43.61382 90.37355 32253 ft 461 kts 288°
2026-05-07 13:04 43.63218 90.28853 32262 ft 462 kts 288°
2026-05-07 13:05 43.65049 90.20339 32264 ft 463 kts 288°
2026-05-07 13:05 43.66878 90.11798 32264 ft 463 kts 288°
2026-05-07 13:06 43.68725 90.03267 32239 ft 463 kts 289°
2026-05-07 13:06 43.70654 89.94845 32241 ft 463 kts 289°
2026-05-07 13:07 43.72613 89.86334 32244 ft 464 kts 289°
2026-05-07 13:07 43.74552 89.77810 32244 ft 464 kts 289°
2026-05-07 13:08 43.76468 89.69314 32217 ft 464 kts 289°
2026-05-07 13:08 43.78382 89.60780 32219 ft 464 kts 289°
2026-05-07 13:09 43.80289 89.52243 32230 ft 464 kts 289°
2026-05-07 13:09 43.82239 89.43697 32230 ft 464 kts 289°
2026-05-07 13:10 43.84223 89.35176 32212 ft 465 kts 290°
2026-05-07 13:10 43.86188 89.26700 32239 ft 465 kts 290°
2026-05-07 13:11 43.88161 89.18127 32393 ft 468 kts 290°
2026-05-07 13:11 43.90130 89.09517 32557 ft 468 kts 290°
2026-05-07 13:12 43.92091 89.00891 32704 ft 468 kts 290°
2026-05-07 13:12 43.94030 88.92332 32880 ft 468 kts 290°
2026-05-07 13:13 43.95975 88.83718 33029 ft 467 kts 290°
2026-05-07 13:13 43.97989 88.75124 33213 ft 468 kts 291°
2026-05-07 13:14 44.00185 88.66625 33347 ft 467 kts 292°
2026-05-07 13:14 44.02388 88.58122 33517 ft 467 kts 292°
2026-05-07 13:15 44.04541 88.49669 33687 ft 466 kts 292°
2026-05-07 13:15 44.06685 88.41146 33817 ft 467 kts 292°
2026-05-07 13:16 44.08821 88.32612 33986 ft 467 kts 292°
2026-05-07 13:16 44.10934 88.24140 34131 ft 466 kts 292°
2026-05-07 13:17 44.13056 88.15604 34219 ft 466 kts 292°
2026-05-07 13:17 44.15169 88.07072 34191 ft 465 kts 292°
2026-05-07 13:18 44.17558 87.98707 34185 ft 463 kts 301°
2026-05-07 13:18 44.21099 87.91287 34169 ft 459 kts 308°
2026-05-07 13:19 44.24913 87.84161 34163 ft 457 kts 309°
2026-05-07 13:19 44.28746 87.77115 34155 ft 457 kts 309°
2026-05-07 13:20 44.32577 87.70023 34150 ft 457 kts 309°
2026-05-07 13:20 44.36421 87.62941 34152 ft 457 kts 310°
2026-05-07 13:21 44.40277 87.55950 34156 ft 457 kts 310°
2026-05-07 13:21 44.44145 87.48924 34146 ft 455 kts 310°
2026-05-07 13:22 44.47995 87.41895 34150 ft 454 kts 310°
2026-05-07 13:22 44.51835 87.34857 34147 ft 454 kts 310°